AAL1958 SULS-SABE

Flight info

Callsign AAL1958
Flight time N/A
Altitude 18000
Route DAGUS UGIMI UGIMI8Q
Aircraft B738/M-VGDW/C

Departure

Time 2026-05-04 23:04
Airport Capitan Corbeta CA Curbelo International Airport (SULS)

Arrival

Time N/A
Airport Aeroparque Jorge Newbery (SABE)
Time Latitude Longitude Altitude Speed Heading
2026-05-04 23:03 -34.85387 -55.08987 78 ft 0 kts 235°
2026-05-04 23:03 -34.85400 -55.09010 78 ft 18 kts 239°
2026-05-04 23:03 -34.85568 -55.09593 87 ft 124 kts 251°
2026-05-04 23:04 -34.85943 -55.10833 589 ft 169 kts 241°
2026-05-04 23:04 -34.86337 -55.11981 1697 ft 176 kts 250°
2026-05-04 23:04 -34.87019 -55.13383 2647 ft 201 kts 233°
2026-05-04 23:04 -34.87655 -55.14812 3797 ft 202 kts 253°
2026-05-04 23:05 -34.87726 -55.16591 4512 ft 224 kts 278°
2026-05-04 23:05 -34.87570 -55.18515 5456 ft 241 kts 270°
2026-05-04 23:05 -34.87761 -55.20631 6306 ft 262 kts 260°
2026-05-04 23:05 -34.88108 -55.22793 7443 ft 269 kts 259°
2026-05-04 23:06 -34.88488 -55.25046 8578 ft 276 kts 258°
2026-05-04 23:06 -34.88885 -55.27323 9748 ft 280 kts 258°
2026-05-04 23:06 -34.89294 -55.29631 10699 ft 290 kts 257°
2026-05-04 23:06 -34.89741 -55.32129 11216 ft 316 kts 257°
2026-05-04 23:07 -34.90222 -55.34808 12017 ft 329 kts 257°
2026-05-04 23:07 -34.90713 -55.37533 12974 ft 336 kts 257°
2026-05-04 23:07 -34.91209 -55.40286 13979 ft 340 kts 257°
2026-05-04 23:07 -34.91718 -55.43115 14995 ft 342 kts 257°
2026-05-04 23:08 -34.92222 -55.45929 15950 ft 345 kts 257°
2026-05-04 23:08 -34.92732 -55.48778 16889 ft 347 kts 257°
2026-05-04 23:08 -34.93244 -55.51637 17723 ft 347 kts 257°
2026-05-04 23:08 -34.93758 -55.54509 17950 ft 348 kts 257°
2026-05-04 23:09 -34.94272 -55.57402 17942 ft 353 kts 257°
2026-05-04 23:09 -34.94787 -55.60306 17940 ft 353 kts 257°
2026-05-04 23:09 -34.95309 -55.63249 17940 ft 353 kts 257°
2026-05-04 23:09 -34.95823 -55.66152 17939 ft 353 kts 258°
2026-05-04 23:10 -34.96344 -55.69110 17940 ft 354 kts 258°
2026-05-04 23:10 -34.96856 -55.72013 17939 ft 354 kts 258°
2026-05-04 23:10 -34.97369 -55.74932 17940 ft 354 kts 258°
2026-05-04 23:10 -34.97885 -55.77862 17939 ft 354 kts 258°
2026-05-04 23:11 -34.98407 -55.80834 17939 ft 355 kts 258°
2026-05-04 23:11 -34.98919 -55.83756 17939 ft 355 kts 258°
2026-05-04 23:11 -34.99439 -55.86722 17939 ft 355 kts 258°
2026-05-04 23:11 -34.99951 -55.89652 17939 ft 356 kts 258°
2026-05-04 23:12 -35.00466 -55.92601 17939 ft 356 kts 258°
2026-05-04 23:12 -35.00982 -55.95555 17947 ft 365 kts 258°
2026-05-04 23:12 -35.01518 -55.98628 17943 ft 371 kts 258°
2026-05-04 23:12 -35.02047 -56.01690 17938 ft 376 kts 259°
2026-05-04 23:13 -35.02248 -56.04881 17934 ft 380 kts 271°
2026-05-04 23:13 -35.02047 -56.08113 17944 ft 384 kts 274°
2026-05-04 23:13 -35.01836 -56.11395 17938 ft 387 kts 272°
2026-05-04 23:13 -35.01674 -56.14635 17936 ft 388 kts 272°
2026-05-04 23:14 -35.01519 -56.17947 17938 ft 388 kts 272°
2026-05-04 23:14 -35.01368 -56.21234 17937 ft 388 kts 272°
2026-05-04 23:14 -35.01222 -56.24482 17938 ft 388 kts 272°
2026-05-04 23:14 -35.01076 -56.27784 17938 ft 388 kts 272°
2026-05-04 23:15 -35.00931 -56.31068 17942 ft 391 kts 272°
2026-05-04 23:15 -35.00786 -56.34365 17936 ft 387 kts 272°
2026-05-04 23:15 -35.00643 -56.37610 17938 ft 387 kts 272°
2026-05-04 23:15 -35.00497 -56.40908 17939 ft 387 kts 272°
2026-05-04 23:16 -35.00353 -56.44150 17938 ft 387 kts 272°
2026-05-04 23:16 -35.00205 -56.47463 17938 ft 387 kts 272°
2026-05-04 23:16 -35.00060 -56.50699 17932 ft 380 kts 272°
2026-05-04 23:16 -34.99917 -56.53852 17931 ft 363 kts 272°
2026-05-04 23:17 -34.99780 -56.56848 17939 ft 355 kts 271°
2026-05-04 23:17 -34.99643 -56.59860 17936 ft 349 kts 271°
2026-05-04 23:17 -34.99507 -56.62809 17943 ft 355 kts 271°
2026-05-04 23:17 -34.99367 -56.65853 17945 ft 360 kts 272°
2026-05-04 23:18 -34.99224 -56.68927 17941 ft 361 kts 272°
2026-05-04 23:18 -34.99081 -56.71972 17939 ft 361 kts 272°
2026-05-04 23:18 -34.98937 -56.75030 17939 ft 361 kts 272°
2026-05-04 23:18 -34.98795 -56.78051 17938 ft 361 kts 272°
2026-05-04 23:19 -34.98650 -56.81101 17938 ft 360 kts 272°
2026-05-04 23:19 -34.98505 -56.84162 17939 ft 360 kts 272°
2026-05-04 23:19 -34.98359 -56.87203 17939 ft 360 kts 272°
2026-05-04 23:19 -34.98262 -56.90242 17938 ft 360 kts 269°
2026-05-04 23:20 -34.98266 -56.93317 17939 ft 361 kts 269°
2026-05-04 23:20 -34.98268 -56.96346 17939 ft 362 kts 269°
2026-05-04 23:20 -34.98260 -56.99431 17938 ft 362 kts 269°
2026-05-04 23:20 -34.98251 -57.02505 17939 ft 363 kts 269°
2026-05-04 23:21 -34.98240 -57.05565 17939 ft 364 kts 269°
2026-05-04 23:21 -34.98228 -57.08682 17939 ft 365 kts 269°
2026-05-04 23:21 -34.98214 -57.11735 17939 ft 365 kts 269°
2026-05-04 23:21 -34.98200 -57.14858 17938 ft 366 kts 269°
2026-05-04 23:22 -34.98185 -57.17963 17938 ft 366 kts 269°
2026-05-04 23:22 -34.98169 -57.21034 17938 ft 365 kts 269°
2026-05-04 23:22 -34.98152 -57.24152 17939 ft 365 kts 269°
2026-05-04 23:22 -34.98135 -57.27210 17939 ft 365 kts 269°
2026-05-04 23:23 -34.98117 -57.30301 17939 ft 365 kts 269°
2026-05-04 23:23 -34.98098 -57.33417 17939 ft 365 kts 269°
2026-05-04 23:23 -34.98077 -57.36551 17939 ft 365 kts 269°
2026-05-04 23:23 -34.98057 -57.39616 17938 ft 365 kts 269°
2026-05-04 23:24 -34.98035 -57.42732 17938 ft 365 kts 269°
2026-05-04 23:24 -34.98013 -57.45808 17938 ft 365 kts 269°
2026-05-04 23:24 -34.97990 -57.48898 17938 ft 365 kts 269°
2026-05-04 23:24 -34.97974 -57.50881 17938 ft 365 kts 269°
2026-05-04 23:25 -34.97974 -57.50918 17938 ft 365 kts 269°
2026-05-04 23:25 -34.97957 -57.53077 17938 ft 365 kts 269°
2026-05-04 23:25 -34.97949 -57.54101 17938 ft 365 kts 269°